| time (UTC) | temp F | wind direction | speed MPH | gust MPH | rain 1hr in | rain 24hr in | rain mn in | humidity % | barometer mb |
| 20260504013026 | 48 | 0.0 | 0.0 | 0.00 | 0.24 | 0.00 | 93 | 1013.6 | |
| 20260504011016 | 48 | 0.0 | 2.0 | 0.00 | 0.24 | 0.00 | 92 | 1013.6 | |
| 20260504010111 | 48 | 0.0 | 0.0 | 0.00 | 0.24 | 0.00 | 92 | 1013.6 | |
| 20260504005105 | 48 | 45 | 0.0 | 2.0 | 0.00 | 0.24 | 0.00 | 92 | 1013.6 |
| 20260504004100 | 48 | 23 | 0.0 | 2.0 | 0.00 | 0.24 | 0.00 | 92 | 1013.7 |
| 20260504003055 | 48 | 5 | 1.0 | 2.0 | 0.00 | 0.24 | 0.00 | 91 | 1013.8 |
| 20260504002050 | 48 | 41 | 2.0 | 4.0 | 0.00 | 0.24 | 0.00 | 91 | 1013.8 |
| 20260504001045 | 48 | 344 | 2.0 | 4.0 | 0.00 | 0.24 | 0.00 | 90 | 1014.1 |
| 20260504000040 | 49 | 41 | 1.0 | 2.0 | 0.00 | 0.24 | 0.00 | 90 | 1014.0 |
| 20260503235035 | 49 | 10 | 1.0 | 4.0 | 0.00 | 0.24 | 0.00 | 89 | 1013.9 |
| 20260503234030 | 49 | 9 | 1.0 | 4.0 | 0.00 | 0.24 | 0.00 | 89 | 1013.9 |
| 20260503233025 | 49 | 21 | 1.0 | 6.0 | 0.00 | 0.24 | 0.00 | 89 | 1013.9 |
| 20260503232020 | 49 | 353 | 1.0 | 4.0 | 0.00 | 0.24 | 0.00 | 88 | 1013.9 |
| 20260503231116 | 50 | 0.0 | 0.0 | 0.00 | 0.24 | 0.00 | 87 | 1013.8 | |
| 20260503230150 | 50 | 0 | 0.0 | 2.0 | 0.00 | 0.24 | 0.00 | 86 | 1013.7 |
| 20260503225125 | 51 | 0.0 | 0.0 | 0.00 | 0.24 | 0.00 | 85 | 1014.0 | |
| 20260503224100 | 51 | 0.0 | 0.0 | 0.00 | 0.24 | 0.00 | 84 | 1013.9 | |
| 20260503223116 | 51 | 188 | 0.0 | 2.0 | 0.00 | 0.24 | 0.00 | 84 | 1013.9 |
| 20260503222111 | 51 | 187 | 3.0 | 6.0 | 0.00 | 0.24 | 0.00 | 83 | 1013.9 |
| 20260503221046 | 51 | 166 | 5.0 | 8.0 | 0.00 | 0.24 | 0.00 | 83 | 1013.9 |
| 20260503220041 | 51 | 191 | 5.0 | 8.0 | 0.00 | 0.24 | 0.00 | 83 | 1013.8 |
| 20260503215035 | 51 | 193 | 3.0 | 6.0 | 0.00 | 0.24 | 0.24 | 82 | 1013.8 |
| 20260503214030 | 51 | 187 | 4.0 | 8.0 | 0.00 | 0.24 | 0.24 | 83 | 1013.9 |
| 20260503213025 | 52 | 195 | 4.0 | 6.0 | 0.00 | 0.24 | 0.24 | 82 | 1013.8 |
| 20260503212020 | 51 | 198 | 3.0 | 4.0 | 0.00 | 0.24 | 0.24 | 83 | 1013.7 |
| 20260503211115 | 51 | 195 | 3.0 | 6.0 | 0.00 | 0.24 | 0.24 | 86 | 1014.0 |
| 20260503210110 | 52 | 248 | 0.0 | 4.0 | 0.00 | 0.24 | 0.24 | 87 | 1013.8 |
| 20260503205125 | 53 | 0.0 | 0.0 | 0.00 | 0.24 | 0.24 | 85 | 1013.5 | |
| 20260503204121 | 53 | 220 | 0.0 | 2.0 | 0.00 | 0.24 | 0.24 | 83 | 1013.4 |
| 20260503203116 | 52 | 182 | 1.0 | 2.0 | 0.00 | 0.24 | 0.24 | 84 | 1013.2 |
| 20260503202110 | 52 | 135 | 0.0 | 2.0 | 0.00 | 0.24 | 0.24 | 86 | 1013.0 |
| 20260503201046 | 53 | 68 | 1.0 | 2.0 | 0.00 | 0.24 | 0.24 | 84 | 1013.0 |
| 20260503200040 | 52 | 74 | 2.0 | 6.0 | 0.00 | 0.24 | 0.24 | 86 | 1013.0 |
| 20260503195056 | 53 | 288 | 4.0 | 6.0 | 0.00 | 0.24 | 0.24 | 84 | 1012.8 |
| 20260503194031 | 53 | 163 | 4.0 | 11.0 | 0.00 | 0.24 | 0.24 | 82 | 1012.8 |
| 20260503193026 | 54 | 204 | 5.0 | 8.0 | 0.00 | 0.24 | 0.24 | 82 | 1012.5 |
| 20260503192021 | 54 | 154 | 4.0 | 9.0 | 0.00 | 0.24 | 0.24 | 83 | 1012.4 |
| 20260503191016 | 54 | 116 | 6.0 | 11.0 | 0.00 | 0.24 | 0.24 | 83 | 1012.2 |
| 20260503190111 | 55 | 121 | 5.0 | 8.0 | 0.07 | 0.24 | 0.24 | 85 | 1012.4 |
| 20260503185106 | 55 | 189 | 3.0 | 8.0 | 0.07 | 0.24 | 0.24 | 86 | 1012.5 |
| 20260503184101 | 55 | 108 | 2.0 | 6.0 | 0.07 | 0.24 | 0.24 | 86 | 1012.3 |
| 20260503183057 | 55 | 190 | 2.0 | 4.0 | 0.07 | 0.24 | 0.24 | 85 | 1012.3 |
| 20260503182051 | 55 | 62 | 3.0 | 7.0 | 0.07 | 0.25 | 0.24 | 85 | 1012.1 |
| 20260503181046 | 55 | 186 | 6.0 | 13.0 | 0.07 | 0.26 | 0.24 | 83 | 1012.1 |
| 20260503180040 | 57 | 143 | 3.0 | 8.0 | 0.00 | 0.19 | 0.17 | 77 | 1012.0 |
| 20260503175116 | 57 | 79 | 3.0 | 7.0 | 0.00 | 0.19 | 0.17 | 77 | 1012.1 |
| 20260503174031 | 57 | 136 | 3.0 | 9.0 | 0.00 | 0.19 | 0.17 | 77 | 1012.2 |
| 20260503173026 | 56 | 146 | 5.0 | 11.0 | 0.00 | 0.19 | 0.17 | 78 | 1012.1 |
| 20260503172020 | 57 | 144 | 6.0 | 13.0 | 0.00 | 0.19 | 0.17 | 75 | 1012.0 |
| 20260503171017 | 57 | 138 | 5.0 | 9.0 | 0.00 | 0.19 | 0.17 | 73 | 1012.0 |
| 20260503170111 | 57 | 178 | 6.0 | 8.0 | 0.00 | 0.19 | 0.17 | 74 | 1011.9 |
| 20260503150132 | 58 | 128 | 1.0 | 2.0 | 0.00 | 0.19 | 0.08 | 69 | 1012.4 |
| 20260503131036 | 59 | 174 | 5.0 | 11.0 | 0.00 | 0.24 | 0.08 | 69 | 1013.2 |
| 20260503130112 | 58 | 209 | 7.0 | 11.0 | 0.00 | 0.26 | 0.08 | 70 | 1013.3 |
| 20260503120103 | 57 | 186 | 4.0 | 7.0 | 0.00 | 0.27 | 0.08 | 74 | 1014.2 |
| 20260503110112 | 55 | 197 | 3.0 | 6.0 | 0.00 | 0.37 | 0.08 | 80 | 1015.1 |
| 20260503090112 | 53 | 215 | 5.0 | 7.0 | 0.02 | 0.31 | 0.02 | 86 | 1015.3 |
| 20260503081047 | 53 | 158 | 1.0 | 2.0 | 0.00 | 0.28 | 0.00 | 80 | 1015.0 |
| 20260503080122 | 53 | 0.0 | 2.0 | 0.00 | 0.28 | 0.00 | 81 | 1015.1 | |
| 20260503072023 | 53 | 158 | 0.0 | 2.0 | 0.00 | 0.28 | 0.00 | 82 | 1015.0 |
| 20260503071018 | 53 | 184 | 0.0 | 2.0 | 0.00 | 0.28 | 0.00 | 83 | 1014.9 |
| 20260503070134 | 53 | 0.0 | 2.0 | 0.00 | 0.28 | 0.00 | 85 | 1015.1 | |
| 20260503055037 | 49 | 0.0 | 2.0 | 0.00 | 0.28 | 0.00 | 94 | 1015.0 | |
| 20260503054032 | 49 | 0.0 | 0.0 | 0.00 | 0.28 | 0.00 | 94 | 1015.0 | |
| 20260503053027 | 49 | 172 | 1.0 | 2.0 | 0.00 | 0.28 | 0.00 | 94 | 1015.0 |
| 20260503052023 | 49 | 248 | 0.0 | 2.0 | 0.00 | 0.28 | 0.00 | 94 | 1015.1 |
| 20260503051037 | 49 | 90 | 0.0 | 2.0 | 0.00 | 0.28 | 0.00 | 93 | 1014.8 |
| 20260503050112 | 50 | 203 | 0.0 | 2.0 | 0.00 | 0.28 | 0.00 | 93 | 1015.0 |
| 20260503045127 | 50 | 203 | 0.0 | 2.0 | 0.00 | 0.28 | 0.00 | 93 | 1014.9 |
| 20260503044104 | 50 | 0.0 | 0.0 | 0.00 | 0.28 | 0.00 | 93 | 1015.0 | |
| 20260503043119 | 50 | 270 | 0.0 | 2.0 | 0.00 | 0.28 | 0.00 | 92 | 1015.1 |
| 20260503042052 | 50 | 222 | 1.0 | 2.0 | 0.00 | 0.28 | 0.00 | 92 | 1015.0 |
| 20260503041047 | 50 | 217 | 3.0 | 6.0 | 0.00 | 0.28 | 0.00 | 91 | 1015.1 |
| 20260503040043 | 50 | 212 | 3.0 | 6.0 | 0.00 | 0.28 | 0.00 | 91 | 1015.0 |
| 20260503035058 | 51 | 219 | 3.0 | 6.0 | 0.00 | 0.28 | 0.00 | 91 | 1015.1 |
| 20260503034033 | 51 | 207 | 3.0 | 6.0 | 0.00 | 0.28 | 0.00 | 91 | 1015.0 |
| 20260503033029 | 51 | 194 | 4.0 | 7.0 | 0.00 | 0.28 | 0.00 | 90 | 1015.1 |
| 20260503032022 | 51 | 200 | 2.0 | 4.0 | 0.00 | 0.28 | 0.00 | 90 | 1015.1 |
| 20260503031018 | 51 | 199 | 3.0 | 4.0 | 0.00 | 0.28 | 0.00 | 90 | 1015.1 |
| 20260503030113 | 51 | 181 | 4.0 | 7.0 | 0.00 | 0.28 | 0.00 | 89 | 1015.3 |
| 20260503025107 | 51 | 194 | 3.0 | 6.0 | 0.00 | 0.28 | 0.00 | 89 | 1015.2 |
| 20260503024102 | 51 | 187 | 2.0 | 4.0 | 0.00 | 0.28 | 0.00 | 89 | 1015.2 |
| 20260503023057 | 51 | 161 | 3.0 | 4.0 | 0.00 | 0.28 | 0.00 | 89 | 1015.3 |
| 20260503022052 | 51 | 177 | 3.0 | 6.0 | 0.00 | 0.28 | 0.00 | 89 | 1015.3 |
| 20260503021047 | 51 | 170 | 4.0 | 6.0 | 0.00 | 0.28 | 0.00 | 89 | 1015.3 |
| 20260503020043 | 51 | 182 | 1.0 | 4.0 | 0.00 | 0.28 | 0.00 | 89 | 1015.3 |
| 20260503015037 | 51 | 189 | 4.0 | 6.0 | 0.00 | 0.28 | 0.00 | 89 | 1015.4 |
| 20260503014032 | 50 | 193 | 3.0 | 6.0 | 0.00 | 0.28 | 0.00 | 90 | 1015.5 |